• In Russia
  • List of Countries
  • For 7 days
  • Water Temperature
  • Satellite Maps
  • Weather Map
  • Weather Widgets
  • user-avatar
    Login

    Hourly Weather Bolshaya Kamenka

    Today, 19 April, Thursday

    Time Temperature Precipitation Wind Pressure Humidity
    00:00 +10°C° 0.2 mm 3 mps 747 mmHg 84%
    01:00 +10°C° 0.6 mm 3 mps 747 mmHg 87%
    02:00 +10°C° 0.6 mm 4 mps 746 mmHg 90%
    03:00 +10°C° 0 mm 4 mps 746 mmHg 93%
    04:00 +9°C° 1.9 mm 5 mps 745 mmHg 94%
    05:00 +9°C° 1.9 mm 5 mps 745 mmHg 94%
    06:00 +9°C° 1.9 mm 5 mps 744 mmHg 94%
    07:00 +9°C° 0.9 mm 5 mps 744 mmHg 94%
    08:00 +9°C° 0.9 mm 5 mps 743 mmHg 93%
    09:00 +10°C° 0.9 mm 4 mps 743 mmHg 93%
    10:00 +10°C° 0.4 mm 4 mps 742 mmHg 92%
    11:00 +10°C° 0.4 mm 4 mps 742 mmHg 92%
    12:00 +10°C° 0.4 mm 4 mps 742 mmHg 91%
    13:00 +11°C° 0.2 mm 4 mps 742 mmHg 87%
    14:00 +10°C° 0.2 mm 5 mps 742 mmHg 83%
    15:00 +12°C° 0.2 mm 5 mps 741 mmHg 79%
    16:00 +11°C° 0.1 mm 4 mps 742 mmHg 79%
    17:00 +11°C° 0.1 mm 4 mps 742 mmHg 80%
    18:00 +11°C° 0.1 mm 4 mps 742 mmHg 80%
    19:00 +8°C° 0 mm 4 mps 742 mmHg 83%
    20:00 +8°C° 0 mm 3 mps 741 mmHg 87%
    21:00 +7°C° 0 mm 3 mps 741 mmHg 90%
    22:00 +7°C° 0 mm 3 mps 741 mmHg 92%
    23:00 +6°C° 0 mm 2 mps 741 mmHg 93%

    Tomorrow, 20 April, Friday

    Time Temperature Precipitation Wind Pressure Humidity
    00:00 +6°C° 0 mm 2 mps 741 mmHg 95%
    01:00 +5°C° 0 mm 2 mps 741 mmHg 95%
    02:00 +5°C° 0 mm 2 mps 741 mmHg 95%
    03:00 +6°C° 0 mm 1 mps 740 mmHg 95%
    04:00 +6°C° 0 mm 1 mps 740 mmHg 94%
    05:00 +6°C° 0 mm 1 mps 740 mmHg 94%
    06:00 +5°C° 0 mm 0 mps 740 mmHg 93%
    07:00 +8°C° 0 mm 1 mps 740 mmHg 89%
    08:00 +9°C° 0 mm 1 mps 741 mmHg 84%
    09:00 +9°C° 0 mm 2 mps 741 mmHg 79%
    10:00 +9°C° 0 mm 3 mps 741 mmHg 78%
    11:00 +8°C° 0 mm 4 mps 741 mmHg 77%
    12:00 +10°C° 0 mm 4 mps 741 mmHg 75%
    13:00 +8°C° 0.1 mm 5 mps 741 mmHg 75%
    14:00 +8°C° 0.1 mm 6 mps 742 mmHg 74%
    15:00 +6°C° 0.1 mm 7 mps 742 mmHg 74%
    16:00 +6°C° 0 mm 7 mps 742 mmHg 73%
    17:00 +5°C° 0 mm 6 mps 743 mmHg 72%
    18:00 +5°C° 0 mm 6 mps 743 mmHg 71%
    19:00 +4°C° 0 mm 6 mps 744 mmHg 72%
    20:00 +3°C° 0 mm 6 mps 745 mmHg 73%
    21:00 +2°C° 0 mm 6 mps 745 mmHg 75%
    22:00 +1°C° 0 mm 6 mps 746 mmHg 73%
    23:00 0°C° 0 mm 5 mps 746 mmHg 71%

    Day after tomorrow, 21 April, Saturday

    Time Temperature Precipitation Wind Pressure Humidity
    00:00 0°C° 0 mm 5 mps 746 mmHg 69%
    01:00 -1°C° 0 mm 4 mps 747 mmHg 70%
    02:00 -2°C° 0 mm 4 mps 747 mmHg 72%
    03:00 -1°C° 0 mm 3 mps 747 mmHg 73%
    04:00 -1°C° 0 mm 3 mps 747 mmHg 71%
    05:00 -2°C° 0 mm 4 mps 747 mmHg 69%
    06:00 -2°C° 0 mm 4 mps 748 mmHg 67%
    07:00 0°C° 0 mm 3 mps 748 mmHg 60%
    08:00 +1°C° 0 mm 3 mps 748 mmHg 54%
    09:00 +2°C° 0 mm 3 mps 748 mmHg 47%
    10:00 +4°C° 0 mm 2 mps 747 mmHg 44%
    11:00 +5°C° 0 mm 2 mps 747 mmHg 42%
    12:00 +7°C° 0 mm 1 mps 747 mmHg 39%
    13:00 +7°C° 0 mm 1 mps 746 mmHg 38%
    14:00 +7°C° 0 mm 2 mps 746 mmHg 37%
    15:00 +7°C° 0 mm 2 mps 745 mmHg 36%
    16:00 +7°C° 0 mm 2 mps 745 mmHg 39%
    17:00 +6°C° 0 mm 2 mps 744 mmHg 42%
    18:00 +5°C° 0 mm 3 mps 744 mmHg 46%
    19:00 +5°C° 0.1 mm 3 mps 743 mmHg 48%
    20:00 +5°C° 0.1 mm 4 mps 743 mmHg 50%
    21:00 +3°C° 0.1 mm 5 mps 742 mmHg 52%
    22:00 +3°C° 0.2 mm 6 mps 741 mmHg 53%
    23:00 +3°C° 0.2 mm 7 mps 740 mmHg 54%

    22 April, Sunday

    Time Temperature Precipitation Wind Pressure Humidity
    00:00 +2°C° 0.2 mm 8 mps 739 mmHg 56%
    01:00 +2°C° 0.1 mm 8 mps 738 mmHg 58%
    02:00 +2°C° 0.1 mm 8 mps 737 mmHg 59%
    03:00 +2°C° 0.1 mm 9 mps 736 mmHg 61%
    04:00 +3°C° 0.1 mm 9 mps 736 mmHg 65%
    05:00 +3°C° 0.1 mm 9 mps 735 mmHg 68%
    06:00 +3°C° 0.1 mm 9 mps 734 mmHg 71%
    07:00 +3°C° 0.5 mm 9 mps 734 mmHg 74%
    08:00 +3°C° 0.5 mm 9 mps 734 mmHg 78%
    09:00 +5°C° 0.5 mm 8 mps 734 mmHg 81%
    10:00 +5°C° 0.6 mm 8 mps 734 mmHg 81%
    11:00 +5°C° 0.6 mm 8 mps 734 mmHg 80%
    12:00 +6°C° 0.6 mm 7 mps 734 mmHg 80%
    13:00 +6°C° 0.1 mm 7 mps 734 mmHg 75%
    14:00 +8°C° 0.1 mm 7 mps 734 mmHg 69%
    15:00 +8°C° 0.1 mm 7 mps 734 mmHg 64%
    16:00 +8°C° 0 mm 6 mps 735 mmHg 65%
    17:00 +7°C° 0 mm 5 mps 735 mmHg 66%
    18:00 +6°C° 0 mm 5 mps 736 mmHg 67%
    19:00 +5°C° 0 mm 5 mps 736 mmHg 70%
    20:00 +4°C° 0 mm 4 mps 737 mmHg 73%
    21:00 +3°C° 0 mm 4 mps 737 mmHg 76%
    22:00 +1°C° 0 mm 4 mps 738 mmHg 78%
    23:00 +1°C° 0 mm 4 mps 738 mmHg 80%

    23 April, Monday

    Time Temperature Precipitation Wind Pressure Humidity
    00:00 0°C° 0 mm 4 mps 738 mmHg 81%
    01:00 -1°C° 0 mm 4 mps 739 mmHg 82%
    02:00 -1°C° 0 mm 4 mps 739 mmHg 83%
    03:00 -2°C° 0 mm 4 mps 740 mmHg 84%
    04:00 -2°C° 0 mm 4 mps 740 mmHg 82%
    05:00 -1°C° 0 mm 5 mps 740 mmHg 80%
    06:00 -1°C° 0 mm 5 mps 741 mmHg 78%
    07:00 -1°C° 0 mm 5 mps 741 mmHg 73%
    08:00 0°C° 0 mm 5 mps 741 mmHg 68%
    09:00 0°C° 0 mm 5 mps 742 mmHg 63%
    10:00 +1°C° 0 mm 5 mps 742 mmHg 61%
    11:00 +1°C° 0 mm 5 mps 743 mmHg 59%
    12:00 +2°C° 0 mm 5 mps 743 mmHg 57%
    13:00 +2°C° 0 mm 5 mps 743 mmHg 55%
    14:00 +2°C° 0 mm 5 mps 744 mmHg 54%
    15:00 +2°C° 0 mm 5 mps 744 mmHg 53%
    16:00 +2°C° 0 mm 5 mps 744 mmHg 54%
    17:00 +3°C° 0 mm 4 mps 745 mmHg 56%
    18:00 +1°C° 0 mm 4 mps 745 mmHg 58%
    19:00 +1°C° 0 mm 3 mps 745 mmHg 63%
    20:00 0°C° 0 mm 3 mps 746 mmHg 68%
    21:00 -1°C° 0 mm 2 mps 746 mmHg 73%
    22:00 -1°C° 0 mm 2 mps 746 mmHg 74%
    23:00 -2°C° 0 mm 2 mps 746 mmHg 75%

    24 April, Tuesday

    Time Temperature Precipitation Wind Pressure Humidity
    00:00 -2°C° 0 mm 2 mps 746 mmHg 76%
    01:00 -2°C° 0 mm 2 mps 747 mmHg 76%
    02:00 -2°C° 0 mm 2 mps 747 mmHg 76%
    03:00 -2°C° 0 mm 2 mps 747 mmHg 76%
    04:00 -2°C° 0 mm 3 mps 747 mmHg 74%
    05:00 -2°C° 0 mm 3 mps 747 mmHg 71%
    06:00 -1°C° 0 mm 3 mps 748 mmHg 68%
    07:00 -1°C° 0 mm 4 mps 748 mmHg 63%
    08:00 0°C° 0 mm 4 mps 748 mmHg 58%
    09:00 +1°C° 0 mm 4 mps 748 mmHg 54%
    10:00 +2°C° 0 mm 5 mps 748 mmHg 52%
    11:00 +2°C° 0 mm 5 mps 748 mmHg 49%
    12:00 +3°C° 0 mm 5 mps 748 mmHg 47%
    13:00 +3°C° 0 mm 5 mps 748 mmHg 46%
    14:00 +3°C° 0 mm 5 mps 748 mmHg 45%
    15:00 +3°C° 0 mm 5 mps 748 mmHg 45%
    16:00 +4°C° 0 mm 4 mps 748 mmHg 47%
    17:00 +4°C° 0 mm 3 mps 749 mmHg 50%
    18:00 +3°C° 0 mm 3 mps 749 mmHg 53%
    19:00 +2°C° 0 mm 3 mps 749 mmHg 56%
    20:00 +2°C° 0 mm 2 mps 750 mmHg 59%
    21:00 +1°C° 0 mm 2 mps 750 mmHg 62%
    22:00 +1°C° 0 mm 2 mps 750 mmHg 63%
    23:00 +1°C° 0 mm 2 mps 750 mmHg 64%
    Show more